contact:dominique.lefevre@mio.osupytheas.fr, maurice.libes@osupytheas.fr, didier.mallarino@osupytheas.fr
Project:EMSO http://www.emso-fr.org/EMSO-France
Depth: 2436.0 m
Title:EMSO Ligure Ouest : Data MII capteur MICROCAT
DateTime_Computer,Latitude,Longitude,Temperature,Conductivity,Pressure,DateTime_Instrument
DateTime_Computer,Latitude,Longitude,degC,S m-1,dbar,DateTime_Instrument
2022-05-07T00:01:16Z,42.805,6.029,13.2997,4.60031,2470.073,2022-5-07T02:02:56Z
2022-05-07T00:04:19Z,42.805,6.029,13.3000,4.60031,2470.11,2022-5-07T02:05:59Z
2022-05-07T00:07:22Z,42.805,6.029,13.3001,4.60032,2470.124,2022-5-07T02:09:03Z
2022-05-07T00:10:25Z,42.805,6.029,13.2998,4.60031,2470.124,2022-5-07T02:12:06Z
2022-05-07T00:13:29Z,42.805,6.029,13.2999,4.60033,2470.133,2022-5-07T02:15:09Z
2022-05-07T00:16:32Z,42.805,6.029,13.2993,4.60032,2470.063,2022-5-07T02:18:12Z
2022-05-07T00:19:35Z,42.805,6.029,13.2997,4.60032,2470.124,2022-5-07T02:21:15Z
2022-05-07T00:22:38Z,42.805,6.029,13.2998,4.60031,2470.1,2022-5-07T02:24:18Z
2022-05-07T00:25:41Z,42.805,6.029,13.2996,4.60033,2470.1,2022-5-07T02:27:21Z
2022-05-07T00:28:44Z,42.805,6.029,13.2997,4.60033,2470.087,2022-5-07T02:30:24Z
2022-05-07T00:31:47Z,42.805,6.029,13.2997,4.60032,2470.124,2022-5-07T02:33:28Z
2022-05-07T00:34:50Z,42.805,6.029,13.2997,4.60032,2470.077,2022-5-07T02:36:31Z
2022-05-07T00:37:54Z,42.805,6.029,13.3001,4.60031,2470.087,2022-5-07T02:39:34Z
2022-05-07T00:40:57Z,42.805,6.029,13.2996,4.60032,2470.124,2022-5-07T02:42:37Z
2022-05-07T00:44:00Z,42.805,6.029,13.3000,4.60032,2470.087,2022-5-07T02:45:40Z
2022-05-07T00:47:03Z,42.805,6.029,13.2996,4.60033,2470.087,2022-5-07T02:48:43Z
2022-05-07T00:50:06Z,42.805,6.029,13.2998,4.60032,2470.087,2022-5-07T02:51:46Z
2022-05-07T00:53:09Z,42.805,6.029,13.2995,4.60032,2470.11,2022-5-07T02:54:49Z
2022-05-07T00:56:12Z,42.805,6.029,13.2998,4.60032,2470.063,2022-5-07T02:57:52Z
2022-05-07T00:59:15Z,42.805,6.029,13.2999,4.60032,2470.087,2022-5-07T03:00:56Z
2022-05-07T01:02:18Z,42.805,6.029,13.2994,4.60032,2470.063,2022-5-07T03:03:59Z
2022-05-07T01:05:22Z,42.805,6.029,13.2998,4.60033,2470.087,2022-5-07T03:07:02Z
2022-05-07T01:08:25Z,42.805,6.029,13.2997,4.60033,2470.1,2022-5-07T03:10:05Z
2022-05-07T01:11:28Z,42.805,6.029,13.3000,4.60033,2470.063,2022-5-07T03:13:08Z
2022-05-07T01:14:31Z,42.805,6.029,13.2996,4.60033,2470.1,2022-5-07T03:16:11Z
2022-05-07T01:17:34Z,42.805,6.029,13.2997,4.60031,2470.11,2022-5-07T03:19:14Z
2022-05-07T01:20:37Z,42.805,6.029,13.2998,4.60031,2470.077,2022-5-07T03:22:17Z
2022-05-07T01:23:40Z,42.805,6.029,13.3000,4.60031,2470.1,2022-5-07T03:25:20Z
2022-05-07T01:26:43Z,42.805,6.029,13.2993,4.60032,2470.087,2022-5-07T03:28:24Z
2022-05-07T01:29:46Z,42.805,6.029,13.2993,4.60032,2470.087,2022-5-07T03:31:27Z
2022-05-07T01:32:50Z,42.805,6.029,13.2995,4.60031,2470.087,2022-5-07T03:34:30Z
2022-05-07T01:35:53Z,42.805,6.029,13.2999,4.60032,2470.11,2022-5-07T03:37:33Z
2022-05-07T01:38:56Z,42.805,6.029,13.3000,4.60032,2470.063,2022-5-07T03:40:36Z
2022-05-07T01:41:59Z,42.805,6.029,13.2998,4.60031,2470.11,2022-5-07T03:43:39Z
2022-05-07T01:45:02Z,42.805,6.029,13.2998,4.60032,2470.053,2022-5-07T03:46:42Z
2022-05-07T01:48:05Z,42.805,6.029,13.2991,4.60032,2470.1,2022-5-07T03:49:45Z
2022-05-07T01:51:08Z,42.805,6.029,13.2998,4.60032,2470.11,2022-5-07T03:52:49Z
2022-05-07T01:54:11Z,42.805,6.029,13.2997,4.60032,2470.087,2022-5-07T03:55:52Z
2022-05-07T01:57:15Z,42.805,6.029,13.2998,4.60032,2470.087,2022-5-07T03:58:55Z
2022-05-07T02:00:18Z,42.805,6.029,13.2997,4.60033,2470.11,2022-5-07T04:01:58Z
2022-05-07T02:03:21Z,42.805,6.029,13.2996,4.60033,2470.1,2022-5-07T04:05:01Z
2022-05-07T02:06:24Z,42.805,6.029,13.2996,4.60033,2470.087,2022-5-07T04:08:04Z
2022-05-07T02:09:27Z,42.805,6.029,13.2996,4.60032,2470.087,2022-5-07T04:11:07Z
2022-05-07T02:12:30Z,42.805,6.029,13.2996,4.60031,2470.063,2022-5-07T04:14:10Z
2022-05-07T02:15:33Z,42.805,6.029,13.2995,4.60031,2470.1,2022-5-07T04:17:13Z
2022-05-07T02:18:36Z,42.805,6.029,13.2998,4.60033,2470.063,2022-5-07T04:20:17Z
2022-05-07T02:21:39Z,42.805,6.029,13.2996,4.60032,2470.1,2022-5-07T04:23:20Z
2022-05-07T02:24:43Z,42.805,6.029,13.2998,4.60032,2470.077,2022-5-07T04:26:23Z
2022-05-07T02:27:46Z,42.805,6.029,13.2998,4.60033,2470.11,2022-5-07T04:29:26Z
2022-05-07T02:30:49Z,42.805,6.029,13.2996,4.60032,2470.1,2022-5-07T04:32:29Z
2022-05-07T02:33:52Z,42.805,6.029,13.2998,4.60032,2470.1,2022-5-07T04:35:32Z
2022-05-07T02:36:55Z,42.805,6.029,13.2996,4.60031,2470.077,2022-5-07T04:38:35Z
2022-05-07T02:39:58Z,42.805,6.029,13.2996,4.60032,2470.087,2022-5-07T04:41:38Z
2022-05-07T02:43:01Z,42.805,6.029,13.3001,4.60031,2470.087,2022-5-07T04:44:41Z
2022-05-07T02:46:04Z,42.805,6.029,13.2996,4.60032,2470.11,2022-5-07T04:47:45Z
2022-05-07T02:49:07Z,42.805,6.029,13.2997,4.60031,2470.11,2022-5-07T04:50:48Z
2022-05-07T02:52:11Z,42.805,6.029,13.2998,4.60033,2470.124,2022-5-07T04:53:51Z
2022-05-07T02:55:14Z,42.805,6.029,13.2996,4.60031,2470.147,2022-5-07T04:56:54Z
2022-05-07T02:58:17Z,42.805,6.029,13.2999,4.60031,2470.073,2022-5-07T04:59:57Z
2022-05-07T03:01:20Z,42.805,6.029,13.2996,4.60031,2470.077,2022-5-07T05:03:00Z
2022-05-07T03:04:23Z,42.805,6.029,13.2997,4.60033,2470.077,2022-5-07T05:06:03Z
2022-05-07T03:07:26Z,42.805,6.029,13.3000,4.60031,2470.087,2022-5-07T05:09:06Z
2022-05-07T03:10:29Z,42.805,6.029,13.3000,4.60031,2470.133,2022-5-07T05:12:10Z
2022-05-07T03:13:32Z,42.805,6.029,13.2996,4.60031,2470.087,2022-5-07T05:15:13Z
2022-05-07T03:16:36Z,42.805,6.029,13.3000,4.60031,2470.11,2022-5-07T05:18:16Z
2022-05-07T03:19:39Z,42.805,6.029,13.2998,4.60031,2470.087,2022-5-07T05:21:19Z
2022-05-07T03:22:42Z,42.805,6.029,13.2998,4.60032,2470.1,2022-5-07T05:24:22Z
2022-05-07T03:25:45Z,42.805,6.029,13.2994,4.60032,2470.124,2022-5-07T05:27:25Z
2022-05-07T03:28:48Z,42.805,6.029,13.2994,4.60033,2470.087,2022-5-07T05:30:28Z
2022-05-07T03:31:51Z,42.805,6.029,13.2998,4.60031,2470.087,2022-5-07T05:33:31Z
2022-05-07T03:34:54Z,42.805,6.029,13.2999,4.60032,2470.087,2022-5-07T05:36:34Z
2022-05-07T03:37:57Z,42.805,6.029,13.2996,4.60033,2470.077,2022-5-07T05:39:38Z
2022-05-07T03:41:00Z,42.805,6.029,13.2997,4.60032,2470.087,2022-5-07T05:42:41Z
2022-05-07T03:44:04Z,42.805,6.029,13.2996,4.60032,2470.1,2022-5-07T05:45:44Z
2022-05-07T03:47:07Z,42.805,6.029,13.3000,4.60031,2470.087,2022-5-07T05:48:47Z
2022-05-07T03:50:10Z,42.805,6.029,13.2998,4.60031,2470.077,2022-5-07T05:51:50Z
2022-05-07T03:53:13Z,42.805,6.029,13.2999,4.60031,2470.053,2022-5-07T05:54:53Z
2022-05-07T03:56:16Z,42.805,6.029,13.2998,4.60031,2470.087,2022-5-07T05:57:56Z
2022-05-07T03:59:19Z,42.805,6.029,13.2996,4.60032,2470.053,2022-5-07T06:00:59Z
2022-05-07T04:02:22Z,42.805,6.029,13.2993,4.60032,2470.053,2022-5-07T06:04:02Z
2022-05-07T04:05:25Z,42.805,6.029,13.2996,4.60031,2470.04,2022-5-07T06:07:06Z
2022-05-07T04:08:28Z,42.805,6.029,13.2995,4.60031,2470.063,2022-5-07T06:10:09Z
2022-05-07T04:11:32Z,42.805,6.029,13.2997,4.60031,2470.053,2022-5-07T06:13:12Z
2022-05-07T04:14:35Z,42.805,6.029,13.2998,4.60032,2470.04,2022-5-07T06:16:15Z
2022-05-07T04:17:38Z,42.805,6.029,13.2998,4.60031,2470.077,2022-5-07T06:19:18Z
2022-05-07T04:20:41Z,42.805,6.029,13.2996,4.60031,2470.063,2022-5-07T06:22:21Z
2022-05-07T04:23:44Z,42.805,6.029,13.3000,4.60032,2470.053,2022-5-07T06:25:24Z
2022-05-07T04:26:47Z,42.805,6.029,13.2996,4.60031,2470.04,2022-5-07T06:28:27Z
2022-05-07T04:29:50Z,42.805,6.029,13.2996,4.60031,2470.04,2022-5-07T06:31:31Z
2022-05-07T04:32:53Z,42.805,6.029,13.2995,4.60031,2470.04,2022-5-07T06:34:34Z
2022-05-07T04:35:57Z,42.805,6.029,13.2995,4.60031,2470.017,2022-5-07T06:37:37Z
2022-05-07T04:39:00Z,42.805,6.029,13.2997,4.60031,2470.077,2022-5-07T06:40:40Z
2022-05-07T04:42:03Z,42.805,6.029,13.2998,4.60033,2470.077,2022-5-07T06:43:43Z
2022-05-07T04:45:06Z,42.805,6.029,13.2998,4.60033,2470.053,2022-5-07T06:46:46Z
2022-05-07T04:48:09Z,42.805,6.029,13.2996,4.60032,2469.993,2022-5-07T06:49:49Z
2022-05-07T04:51:12Z,42.805,6.029,13.2997,4.60032,2470.017,2022-5-07T06:52:52Z
2022-05-07T04:54:15Z,42.805,6.029,13.2995,4.60031,2470.04,2022-5-07T06:55:55Z
2022-05-07T04:57:18Z,42.805,6.029,13.3000,4.60031,2470.03,2022-5-07T06:58:59Z
2022-05-07T05:00:21Z,42.805,6.029,13.3000,4.60031,2470.04,2022-5-07T07:02:02Z
2022-05-07T05:03:25Z,42.805,6.029,13.2996,4.60031,2470.017,2022-5-07T07:05:05Z
2022-05-07T05:06:28Z,42.805,6.029,13.2996,4.60032,2470.017,2022-5-07T07:08:08Z
2022-05-07T05:09:31Z,42.805,6.029,13.3000,4.60032,2470.03,2022-5-07T07:11:11Z
2022-05-07T05:12:34Z,42.805,6.029,13.2999,4.60032,2470.007,2022-5-07T07:14:14Z
2022-05-07T05:15:37Z,42.805,6.029,13.2998,4.60031,2470.017,2022-5-07T07:17:17Z
2022-05-07T05:18:40Z,42.805,6.029,13.3000,4.60031,2470.017,2022-5-07T07:20:20Z
2022-05-07T05:21:43Z,42.805,6.029,13.2999,4.60032,2469.993,2022-5-07T07:23:23Z
2022-05-07T05:24:46Z,42.805,6.029,13.2998,4.60031,2470.017,2022-5-07T07:26:27Z
2022-05-07T05:27:49Z,42.805,6.029,13.2998,4.60031,2470.017,2022-5-07T07:29:30Z
2022-05-07T05:30:53Z,42.805,6.029,13.2999,4.60032,2470.017,2022-5-07T07:32:33Z
2022-05-07T05:33:56Z,42.805,6.029,13.2999,4.60032,2470.03,2022-5-07T07:35:36Z
2022-05-07T05:36:59Z,42.805,6.029,13.3000,4.60032,2470.03,2022-5-07T07:38:39Z
2022-05-07T05:40:02Z,42.805,6.029,13.2993,4.60031,2470.017,2022-5-07T07:41:42Z
2022-05-07T05:43:05Z,42.805,6.029,13.3000,4.60031,2469.993,2022-5-07T07:44:45Z
2022-05-07T05:46:08Z,42.805,6.029,13.2996,4.60031,2470.007,2022-5-07T07:47:48Z
2022-05-07T05:49:11Z,42.805,6.029,13.2995,4.60031,2469.97,2022-5-07T07:50:52Z
2022-05-07T05:52:14Z,42.805,6.029,13.2996,4.60031,2469.97,2022-5-07T07:53:55Z
2022-05-07T05:55:18Z,42.805,6.029,13.2998,4.60032,2469.993,2022-5-07T07:56:58Z
2022-05-07T05:58:21Z,42.805,6.029,13.2997,4.60031,2469.947,2022-5-07T08:00:01Z
2022-05-07T06:01:24Z,42.805,6.029,13.2995,4.60030,2469.97,2022-5-07T08:03:04Z
2022-05-07T06:04:27Z,42.805,6.029,13.2997,4.60031,2470.021,2022-5-07T08:06:07Z
2022-05-07T06:07:30Z,42.805,6.029,13.2998,4.60032,2469.984,2022-5-07T08:09:10Z
2022-05-07T06:10:33Z,42.805,6.029,13.2996,4.60031,2469.984,2022-5-07T08:12:13Z
2022-05-07T06:13:36Z,42.805,6.029,13.2999,4.60031,2469.984,2022-5-07T08:15:16Z
2022-05-07T06:16:39Z,42.805,6.029,13.2998,4.60029,2469.96,2022-5-07T08:18:20Z
2022-05-07T06:19:42Z,42.805,6.029,13.2997,4.60031,2469.947,2022-5-07T08:21:23Z
2022-05-07T06:22:46Z,42.805,6.029,13.2997,4.60031,2469.947,2022-5-07T08:24:26Z
2022-05-07T06:25:49Z,42.805,6.029,13.3004,4.60031,2469.97,2022-5-07T08:27:29Z
2022-05-07T06:28:52Z,42.805,6.029,13.2993,4.60031,2470.007,2022-5-07T08:30:32Z
2022-05-07T06:31:55Z,42.805,6.029,13.2994,4.60031,2469.97,2022-5-07T08:33:35Z
2022-05-07T06:34:58Z,42.805,6.029,13.2998,4.60033,2469.993,2022-5-07T08:36:38Z
2022-05-07T06:38:01Z,42.805,6.029,13.2996,4.60032,2469.947,2022-5-07T08:39:41Z
2022-05-07T06:41:04Z,42.805,6.029,13.2996,4.60031,2469.993,2022-5-07T08:42:45Z
2022-05-07T06:44:07Z,42.805,6.029,13.2996,4.60031,2469.96,2022-5-07T08:45:48Z
2022-05-07T06:47:11Z,42.805,6.029,13.2994,4.60031,2469.947,2022-5-07T08:48:51Z
2022-05-07T06:50:14Z,42.805,6.029,13.2997,4.60032,2469.97,2022-5-07T08:51:54Z
2022-05-07T06:53:17Z,42.805,6.029,13.3000,4.60031,2470.017,2022-5-07T08:54:57Z
2022-05-07T06:56:20Z,42.805,6.029,13.2995,4.60030,2470.03,2022-5-07T08:58:00Z
2022-05-07T06:59:23Z,42.805,6.029,13.2996,4.60031,2469.984,2022-5-07T09:01:03Z
2022-05-07T07:02:26Z,42.805,6.029,13.2999,4.60031,2469.993,2022-5-07T09:04:06Z
2022-05-07T07:05:29Z,42.805,6.029,13.2995,4.60031,2470.007,2022-5-07T09:07:09Z
2022-05-07T07:08:32Z,42.805,6.029,13.2998,4.60031,2469.947,2022-5-07T09:10:13Z
2022-05-07T07:11:35Z,42.805,6.029,13.2996,4.60031,2469.97,2022-5-07T09:13:16Z
2022-05-07T07:14:39Z,42.805,6.029,13.2998,4.60031,2469.984,2022-5-07T09:16:19Z
2022-05-07T07:17:42Z,42.805,6.029,13.3000,4.60031,2469.923,2022-5-07T09:19:22Z
2022-05-07T07:20:45Z,42.805,6.029,13.2994,4.60031,2469.947,2022-5-07T09:22:25Z
2022-05-07T07:23:48Z,42.805,6.029,13.2996,4.60031,2469.97,2022-5-07T09:25:28Z
2022-05-07T07:26:51Z,42.805,6.029,13.2997,4.60032,2469.947,2022-5-07T09:28:31Z
2022-05-07T07:29:54Z,42.805,6.029,13.3000,4.60030,2469.96,2022-5-07T09:31:34Z
2022-05-07T07:32:57Z,42.805,6.029,13.2996,4.60032,2469.97,2022-5-07T09:34:37Z
2022-05-07T07:36:00Z,42.805,6.029,13.2993,4.60032,2469.947,2022-5-07T09:37:41Z
2022-05-07T07:39:04Z,42.805,6.029,13.2998,4.60033,2469.96,2022-5-07T09:40:44Z
2022-05-07T07:42:07Z,42.805,6.029,13.3000,4.60031,2469.947,2022-5-07T09:43:47Z
2022-05-07T07:45:10Z,42.805,6.029,13.2998,4.60032,2469.97,2022-5-07T09:46:50Z
2022-05-07T07:48:13Z,42.805,6.029,13.2999,4.60031,2469.984,2022-5-07T09:49:53Z
2022-05-07T07:51:16Z,42.805,6.029,13.2996,4.60032,2469.97,2022-5-07T09:52:56Z
2022-05-07T07:54:19Z,42.805,6.029,13.2995,4.60031,2469.947,2022-5-07T09:55:59Z
2022-05-07T07:57:22Z,42.805,6.029,13.2996,4.60031,2469.96,2022-5-07T09:59:02Z
2022-05-07T08:00:25Z,42.805,6.029,13.2998,4.60033,2469.984,2022-5-07T10:02:06Z
2022-05-07T08:03:28Z,42.805,6.029,13.3000,4.60032,2469.947,2022-5-07T10:05:09Z
2022-05-07T08:06:32Z,42.805,6.029,13.2995,4.60031,2469.984,2022-5-07T10:08:12Z
2022-05-07T08:09:35Z,42.805,6.029,13.2998,4.60031,2469.984,2022-5-07T10:11:15Z
2022-05-07T08:12:38Z,42.805,6.029,13.3000,4.60031,2469.947,2022-5-07T10:14:18Z
2022-05-07T08:15:41Z,42.805,6.029,13.2996,4.60032,2469.97,2022-5-07T10:17:21Z
2022-05-07T08:18:44Z,42.805,6.029,13.2996,4.60032,2469.97,2022-5-07T10:20:24Z
2022-05-07T08:21:47Z,42.805,6.029,13.2998,4.60031,2469.96,2022-5-07T10:23:27Z
2022-05-07T08:24:50Z,42.805,6.029,13.2999,4.60032,2469.97,2022-5-07T10:26:30Z
2022-05-07T08:27:53Z,42.805,6.029,13.2999,4.60032,2469.993,2022-5-07T10:29:34Z
2022-05-07T08:30:57Z,42.805,6.029,13.2998,4.60032,2469.933,2022-5-07T10:32:37Z
2022-05-07T08:34:00Z,42.805,6.029,13.2996,4.60031,2469.984,2022-5-07T10:35:40Z
2022-05-07T08:37:03Z,42.805,6.029,13.2997,4.60031,2469.947,2022-5-07T10:38:43Z
2022-05-07T08:40:06Z,42.805,6.029,13.3000,4.60032,2469.97,2022-5-07T10:41:46Z
2022-05-07T08:43:09Z,42.805,6.029,13.2996,4.60031,2469.947,2022-5-07T10:44:49Z
2022-05-07T08:46:12Z,42.805,6.029,13.2997,4.60032,2469.947,2022-5-07T10:47:52Z
2022-05-07T08:49:15Z,42.805,6.029,13.2996,4.60031,2469.923,2022-5-07T10:50:55Z
2022-05-07T08:52:18Z,42.805,6.029,13.2996,4.60031,2469.97,2022-5-07T10:53:59Z
2022-05-07T08:55:21Z,42.805,6.029,13.2998,4.60031,2469.97,2022-5-07T10:57:02Z
2022-05-07T08:58:25Z,42.805,6.029,13.2999,4.60031,2469.96,2022-5-07T11:00:05Z
2022-05-07T09:01:28Z,42.805,6.029,13.2993,4.60031,2469.947,2022-5-07T11:03:08Z
2022-05-07T09:04:31Z,42.805,6.029,13.3002,4.60031,2469.923,2022-5-07T11:06:11Z
2022-05-07T09:07:34Z,42.805,6.029,13.3000,4.60031,2469.947,2022-5-07T11:09:14Z
2022-05-07T09:10:37Z,42.805,6.029,13.2998,4.60030,2469.947,2022-5-07T11:12:17Z
2022-05-07T09:13:40Z,42.805,6.029,13.2996,4.60030,2469.947,2022-5-07T11:15:20Z
2022-05-07T09:16:43Z,42.805,6.029,13.2997,4.60031,2469.947,2022-5-07T11:18:24Z
2022-05-07T09:19:46Z,42.805,6.029,13.2996,4.60031,2469.97,2022-5-07T11:21:27Z
2022-05-07T09:22:50Z,42.805,6.029,13.2994,4.60031,2470.007,2022-5-07T11:24:30Z
2022-05-07T09:25:53Z,42.805,6.029,13.2997,4.60031,2469.97,2022-5-07T11:27:33Z
2022-05-07T09:28:56Z,42.805,6.029,13.2998,4.60031,2469.97,2022-5-07T11:30:36Z
2022-05-07T09:31:59Z,42.805,6.029,13.2996,4.60031,2469.96,2022-5-07T11:33:39Z
2022-05-07T09:35:02Z,42.805,6.029,13.2998,4.60031,2469.984,2022-5-07T11:36:42Z
2022-05-07T09:38:05Z,42.805,6.029,13.2996,4.60031,2469.96,2022-5-07T11:39:45Z
2022-05-07T09:41:08Z,42.805,6.029,13.2999,4.60031,2469.923,2022-5-07T11:42:49Z
2022-05-07T09:44:11Z,42.805,6.029,13.2997,4.60031,2469.947,2022-5-07T11:45:52Z
2022-05-07T09:47:15Z,42.805,6.029,13.2998,4.60031,2469.947,2022-5-07T11:48:55Z
2022-05-07T09:50:18Z,42.805,6.029,13.2995,4.60031,2469.97,2022-5-07T11:51:58Z
2022-05-07T09:53:21Z,42.805,6.029,13.2999,4.60031,2469.984,2022-5-07T11:55:01Z
2022-05-07T09:56:24Z,42.805,6.029,13.2998,4.60031,2469.947,2022-5-07T11:58:04Z
2022-05-07T09:59:27Z,42.805,6.029,13.3000,4.60031,2469.97,2022-5-07T12:01:07Z
2022-05-07T10:02:30Z,42.805,6.029,13.2995,4.60031,2469.984,2022-5-07T12:04:10Z
2022-05-07T10:05:33Z,42.805,6.029,13.2998,4.60029,2469.984,2022-5-07T12:07:14Z
2022-05-07T10:08:36Z,42.805,6.029,13.2996,4.60031,2469.937,2022-5-07T12:10:17Z
2022-05-07T10:11:40Z,42.805,6.029,13.2998,4.60031,2469.97,2022-5-07T12:13:20Z
2022-05-07T10:14:43Z,42.805,6.029,13.2999,4.60031,2469.947,2022-5-07T12:16:23Z
2022-05-07T10:17:46Z,42.805,6.029,13.2995,4.60031,2469.97,2022-5-07T12:19:26Z
2022-05-07T10:20:49Z,42.805,6.029,13.2999,4.60031,2469.993,2022-5-07T12:22:29Z
2022-05-07T10:23:52Z,42.805,6.029,13.2998,4.60031,2469.96,2022-5-07T12:25:32Z
2022-05-07T10:26:55Z,42.805,6.029,13.2998,4.60031,2469.97,2022-5-07T12:28:35Z
2022-05-07T10:29:58Z,42.805,6.029,13.2996,4.60031,2469.97,2022-5-07T12:31:38Z
2022-05-07T10:33:01Z,42.805,6.029,13.2998,4.60031,2469.97,2022-5-07T12:34:42Z
2022-05-07T10:36:04Z,42.805,6.029,13.2995,4.60031,2469.96,2022-5-07T12:37:45Z
2022-05-07T10:39:08Z,42.805,6.029,13.2998,4.60031,2469.97,2022-5-07T12:40:48Z
2022-05-07T10:42:11Z,42.805,6.029,13.2997,4.60031,2469.947,2022-5-07T12:43:51Z
2022-05-07T10:45:14Z,42.805,6.029,13.2996,4.60031,2470.03,2022-5-07T12:46:54Z
2022-05-07T10:48:17Z,42.805,6.029,13.2996,4.60029,2469.937,2022-5-07T12:49:57Z
2022-05-07T10:51:20Z,42.805,6.029,13.3000,4.60031,2469.97,2022-5-07T12:53:00Z
2022-05-07T10:54:23Z,42.805,6.029,13.2998,4.60031,2469.984,2022-5-07T12:56:03Z
2022-05-07T10:57:26Z,42.805,6.029,13.2999,4.60032,2469.97,2022-5-07T12:59:07Z
2022-05-07T11:00:29Z,42.805,6.029,13.2996,4.60031,2469.947,2022-5-07T13:02:10Z
2022-05-07T11:03:33Z,42.805,6.029,13.2995,4.60031,2469.933,2022-5-07T13:05:13Z
2022-05-07T11:06:36Z,42.805,6.029,13.2995,4.60031,2469.96,2022-5-07T13:08:16Z
2022-05-07T11:09:39Z,42.805,6.029,13.2993,4.60032,2469.947,2022-5-07T13:11:19Z
2022-05-07T11:12:42Z,42.805,6.029,13.2997,4.60031,2469.923,2022-5-07T13:14:22Z
2022-05-07T11:15:45Z,42.805,6.029,13.2997,4.60031,2469.947,2022-5-07T13:17:25Z
2022-05-07T11:18:48Z,42.805,6.029,13.2997,4.60031,2469.947,2022-5-07T13:20:28Z
2022-05-07T11:21:51Z,42.805,6.029,13.3001,4.60031,2469.947,2022-5-07T13:23:32Z
2022-05-07T11:24:54Z,42.805,6.029,13.2998,4.60031,2469.947,2022-5-07T13:26:35Z
2022-05-07T11:27:58Z,42.805,6.029,13.2998,4.60030,2469.984,2022-5-07T13:29:38Z
2022-05-07T11:31:01Z,42.805,6.029,13.2995,4.60031,2469.974,2022-5-07T13:32:41Z
2022-05-07T11:34:04Z,42.805,6.029,13.3003,4.60031,2469.947,2022-5-07T13:35:44Z
2022-05-07T11:37:07Z,42.805,6.029,13.2994,4.60031,2469.937,2022-5-07T13:38:47Z
2022-05-07T11:40:10Z,42.805,6.029,13.2996,4.60030,2469.923,2022-5-07T13:41:50Z
2022-05-07T11:43:13Z,42.805,6.029,13.2995,4.60031,2469.947,2022-5-07T13:44:53Z
2022-05-07T11:46:16Z,42.805,6.029,13.2995,4.60030,2469.933,2022-5-07T13:47:57Z
2022-05-07T11:49:19Z,42.805,6.029,13.2998,4.60031,2469.97,2022-5-07T13:51:00Z
2022-05-07T11:52:22Z,42.805,6.029,13.2997,4.60031,2469.984,2022-5-07T13:54:03Z
2022-05-07T11:55:26Z,42.805,6.029,13.2998,4.60030,2469.947,2022-5-07T13:57:06Z
2022-05-07T11:58:29Z,42.805,6.029,13.2995,4.60031,2469.947,2022-5-07T14:00:09Z
2022-05-07T12:01:32Z,42.805,6.029,13.3000,4.60031,2469.937,2022-5-07T14:03:12Z
2022-05-07T12:04:35Z,42.805,6.029,13.2995,4.60031,2469.97,2022-5-07T14:06:15Z
2022-05-07T12:07:38Z,42.805,6.029,13.2994,4.60031,2469.947,2022-5-07T14:09:18Z
2022-05-07T12:10:41Z,42.805,6.029,13.2998,4.60031,2469.937,2022-5-07T14:12:21Z
2022-05-07T12:13:44Z,42.805,6.029,13.2996,4.60031,2469.96,2022-5-07T14:15:25Z
2022-05-07T12:16:47Z,42.805,6.029,13.2997,4.60031,2469.993,2022-5-07T14:18:28Z
2022-05-07T12:19:51Z,42.805,6.029,13.2996,4.60031,2469.933,2022-5-07T14:21:31Z
2022-05-07T12:22:54Z,42.805,6.029,13.2995,4.60031,2469.923,2022-5-07T14:24:34Z
2022-05-07T12:25:57Z,42.805,6.029,13.2996,4.60030,2469.97,2022-5-07T14:27:37Z
2022-05-07T12:29:00Z,42.805,6.029,13.2995,4.60031,2469.947,2022-5-07T14:30:40Z
2022-05-07T12:32:03Z,42.805,6.029,13.2996,4.60031,2469.984,2022-5-07T14:33:43Z
2022-05-07T12:35:06Z,42.805,6.029,13.2998,4.60030,2469.947,2022-5-07T14:36:46Z
2022-05-07T12:38:09Z,42.805,6.029,13.2998,4.60031,2469.97,2022-5-07T14:39:50Z
2022-05-07T12:41:12Z,42.805,6.029,13.2995,4.60032,2469.97,2022-5-07T14:42:53Z
2022-05-07T12:44:16Z,42.805,6.029,13.2997,4.60031,2469.947,2022-5-07T14:45:56Z
2022-05-07T12:47:19Z,42.805,6.029,13.2996,4.60031,2469.923,2022-5-07T14:48:59Z
2022-05-07T12:50:22Z,42.805,6.029,13.2996,4.60033,2469.993,2022-5-07T14:52:02Z
2022-05-07T12:53:25Z,42.805,6.029,13.3003,4.60031,2469.947,2022-5-07T14:55:05Z
2022-05-07T12:56:28Z,42.805,6.029,13.2998,4.60031,2469.96,2022-5-07T14:58:08Z
2022-05-07T12:59:31Z,42.805,6.029,13.2996,4.60031,2469.97,2022-5-07T15:01:11Z
2022-05-07T13:02:34Z,42.805,6.029,13.2998,4.60031,2469.947,2022-5-07T15:04:15Z
2022-05-07T13:05:37Z,42.805,6.029,13.2995,4.60031,2469.97,2022-5-07T15:07:18Z
2022-05-07T13:08:41Z,42.805,6.029,13.2996,4.60031,2469.984,2022-5-07T15:10:21Z
2022-05-07T13:11:44Z,42.805,6.029,13.2998,4.60031,2469.937,2022-5-07T15:13:24Z
2022-05-07T13:14:47Z,42.805,6.029,13.2996,4.60031,2469.96,2022-5-07T15:16:27Z
2022-05-07T13:17:50Z,42.805,6.029,13.2996,4.60030,2469.947,2022-5-07T15:19:30Z
2022-05-07T13:20:53Z,42.805,6.029,13.2997,4.60031,2469.97,2022-5-07T15:22:33Z
2022-05-07T13:23:56Z,42.805,6.029,13.2996,4.60031,2469.984,2022-5-07T15:25:36Z
2022-05-07T13:26:59Z,42.805,6.029,13.2997,4.60031,2469.984,2022-5-07T15:28:40Z
2022-05-07T13:30:02Z,42.805,6.029,13.2997,4.60031,2469.947,2022-5-07T15:31:43Z
2022-05-07T13:33:06Z,42.805,6.029,13.2998,4.60031,2469.923,2022-5-07T15:34:46Z
2022-05-07T13:36:09Z,42.805,6.029,13.2996,4.60031,2469.96,2022-5-07T15:37:49Z
2022-05-07T13:39:12Z,42.805,6.029,13.2998,4.60031,2469.947,2022-5-07T15:40:52Z
2022-05-07T13:42:15Z,42.805,6.029,13.3000,4.60031,2469.97,2022-5-07T15:43:55Z
2022-05-07T13:45:18Z,42.805,6.029,13.3002,4.60032,2469.993,2022-5-07T15:46:58Z
2022-05-07T13:48:21Z,42.805,6.029,13.2994,4.60029,2469.956,2022-5-07T15:50:01Z
2022-05-07T13:51:24Z,42.805,6.029,13.2995,4.60031,2469.96,2022-5-07T15:53:05Z
2022-05-07T13:54:27Z,42.805,6.029,13.3000,4.60031,2469.993,2022-5-07T15:56:08Z
2022-05-07T13:57:30Z,42.805,6.029,13.2997,4.60031,2469.97,2022-5-07T15:59:11Z
2022-05-07T14:00:34Z,42.805,6.029,13.2998,4.60030,2469.96,2022-5-07T16:02:14Z
2022-05-07T14:03:37Z,42.805,6.029,13.2999,4.60030,2469.97,2022-5-07T16:05:17Z
2022-05-07T14:06:40Z,42.805,6.029,13.3000,4.60031,2469.947,2022-5-07T16:08:20Z
2022-05-07T14:09:43Z,42.805,6.029,13.2997,4.60031,2469.979,2022-5-07T16:11:23Z
2022-05-07T14:12:46Z,42.805,6.029,13.3001,4.60031,2469.947,2022-5-07T16:14:26Z
2022-05-07T14:15:49Z,42.805,6.029,13.2998,4.60030,2469.947,2022-5-07T16:17:29Z
2022-05-07T14:18:52Z,42.805,6.029,13.2993,4.60031,2469.96,2022-5-07T16:20:33Z
2022-05-07T14:21:55Z,42.805,6.029,13.2998,4.60031,2469.984,2022-5-07T16:23:36Z
2022-05-07T14:24:59Z,42.805,6.029,13.2998,4.60031,2470.007,2022-5-07T16:26:39Z
2022-05-07T14:28:02Z,42.805,6.029,13.2999,4.60031,2469.984,2022-5-07T16:29:42Z
2022-05-07T14:31:05Z,42.805,6.029,13.2996,4.60031,2469.97,2022-5-07T16:32:45Z
2022-05-07T14:34:08Z,42.805,6.029,13.2999,4.60031,2469.96,2022-5-07T16:35:48Z
2022-05-07T14:37:11Z,42.805,6.029,13.3000,4.60029,2469.984,2022-5-07T16:38:51Z
2022-05-07T14:40:14Z,42.805,6.029,13.3000,4.60030,2469.97,2022-5-07T16:41:54Z
2022-05-07T14:43:17Z,42.805,6.029,13.2997,4.60032,2470.007,2022-5-07T16:44:58Z
2022-05-07T14:46:20Z,42.805,6.029,13.2995,4.60031,2469.947,2022-5-07T16:48:01Z
2022-05-07T14:49:24Z,42.805,6.029,13.2995,4.60031,2469.96,2022-5-07T16:51:04Z
2022-05-07T14:52:27Z,42.805,6.029,13.2998,4.60031,2469.947,2022-5-07T16:54:07Z
2022-05-07T14:55:30Z,42.805,6.029,13.2994,4.60031,2469.947,2022-5-07T16:57:10Z
2022-05-07T14:58:33Z,42.805,6.029,13.2998,4.60031,2469.947,2022-5-07T17:00:13Z
2022-05-07T15:01:36Z,42.805,6.029,13.3000,4.60031,2470.007,2022-5-07T17:03:16Z
2022-05-07T15:04:39Z,42.805,6.029,13.2997,4.60030,2469.97,2022-5-07T17:06:19Z
2022-05-07T15:07:42Z,42.805,6.029,13.2996,4.60029,2469.97,2022-5-07T17:09:23Z
2022-05-07T15:10:45Z,42.805,6.029,13.2996,4.60032,2469.993,2022-5-07T17:12:26Z
2022-05-07T15:13:49Z,42.805,6.029,13.2996,4.60031,2469.97,2022-5-07T17:15:29Z